Location: Newark
(52.4787°S, 179.0532°W)
Time: 20:47:36
(UTC+00:00)

Transit 2A Rocket - Pass Details

Date: 28 November 2019
Orbit: 594 x 909 km, 66.7° (Epoch: 13 December)

Event Time Altitude Azimuth Distance (km) Brightness Sun altitude
Rises 04:04:32 0° 221° (SW) 3,574 8.9 31.7°
Reaches altitude 10° 04:07:09 10° 224° (SW) 2,620 8.4 31.3°
Maximum altitude 04:13:08 57° 301° (WNW) 1,045 6.9 30.4°
Drops below altitude 10° 04:18:48 10° 17° (NNE) 2,475 7.6 29.6°
Sets 04:21:12 0° 21° (NNE) 3,362 8.2 29.2°
